Hourly Data Report for October 06, 2017

All times are specified in Local Standard Time (LST). Add 1 hour to adjust for Daylight Saving Time where and when it is observed.

EAST POINT (AUT)
PRINCE EDWARD ISLAND

46°27'36.000" N
61°59'18.000" W
7.70 m
8300418
71412
WEP

Download Data

Hourly Data (October 2017)
Hourly Data Report for October 6, 2017
Temp Definition
°C
Dew Point Temp Definition
°C
Rel Hum Definition
%
Wind Dir Definition
10's deg

Wind Spd Definition
km/h
Visibility Definition
km
Stn Press Definition
kPa
Hmdx Definition


Wind Chill Definition


Weather Definition


TIME
00:00 14.7 12.6 87 18 16   101.11     LegendNANA
01:00 15.2 13.4 89 19 14   101.11     LegendNANA
02:00 15.3 13.8 90 20 18   101.06     LegendNANA
03:00 15.5 13.2 86 20 21   101.07     LegendNANA
04:00 15.0 10.8 76 21 17   101.08     LegendNANA
05:00 13.6 9.6 76 24 14   101.12     LegendNANA
06:00 14.0 9.6 74 26 15   101.16     LegendNANA
07:00 13.5 9.7 78 23 12   101.19     LegendNANA
08:00 13.6 9.8 78 27 15   101.30     LegendNANA
09:00 14.8 9.6 71 28 26   101.35     LegendNANA
10:00 15.0 8.9 67 29 28   101.39     LegendNANA
11:00 15.3 9.9 70 29 23   101.39     LegendNANA
12:00 14.9 8.0 64 29 24   101.39     LegendNANA
13:00 14.6 8.6 67 29 22   101.36     LegendNANA
14:00 14.5 7.6 63 29 21   101.43     LegendNANA
15:00 14.3 7.3 63 30 18   101.39     LegendNANA
16:00 13.4 6.8 64 29 17   101.43     LegendNANA
17:00 12.9 7.3 69 30 7   101.43     LegendNANA
18:00 11.8 8.1 78 18 6   101.49     LegendNANA
19:00 9.8 7.0 83 17 8   101.49     LegendNANA
20:00 9.5 6.7 83 16 6   101.55     LegendNANA
21:00 10.3 7.6 84 19 4   101.59     LegendNANA
22:00 11.8 9.7 87 18 10   101.66     LegendNANA
23:00 11.4 9.4 87 20 9   101.69     LegendNANA

Notes on Data Quality.

Legend

  • E = Estimated
  • M = Missing
  • NA = Not Available
  • ‡ = Partner data that is not subject to review by the National Climate Archives
Date modified: